sat.trackr.live / text

‹ back to catalog

STARLINK-3753

NORAD 52292 · 2022-041AH

PAYLOAD ACTIVE UNKNOWN

§ Identity

Operator
Country
US
Launch date
2022-04-21
Launch site
AFETR
Launch vehicle
Mass (kg)
RCS (m²)

Purposes: comms

External: N2YO · Heavens-Above · Gunter

§ Orbital elements

Epoch: 2026-05-25T04:34:34.999104Z

Period
95.44 min
Inclination
53.2125°
Eccentricity
0.0001307
Mean motion
15.08842636 rev/d
Perigee alt
538.8 km
Apogee alt
540.6 km
Semi-major
6,917.9 km
B*
1.8498e-5
RAAN
115.6934°
Arg perigee
75.6702°
Mean anomaly
284.4435°
Rev number
22,605

§ Raw data

STARLINK-37531 52292U 22041AH  26145.19068286  .00000007  00000+0  18498-4 0  99972 52292  53.2125 115.6934 0001307  75.6702 284.4435 15.08842636226055

JSON: /api/v1/satellites/52292 · /tle

For live sub-satellite position, see the globe view (requires WebGL).

§ Visibility from observer

Set your observer location to see the next 7 days of passes ≥ 10°. The values pass through the URL so the page stays shareable.

No JS? Fill the form by hand. The geolocation button needs JavaScript.